ONEWEB-0543 (55143 NORAD) Tracking and Keplerian Element Data

This shows tracking and keplerian element data for the satellite.

Feedback or suggestion? Click here.




ElementValue
Catalog55143
NameONEWEB-0543
Epoch Orbit130
Epoch Day13.91667824
Epoch Year2023
RAAN284.1449
Inclination86.5136
Eccentricity0.0008959
Argument of Perigee199.8341
Mean Anonmoly62.1411
Mean Motion14.90683238
Decay Rate-0.00048672
L11 55143U 23004D 23013.91667824 -.00048672 00000+0 -50048-2 0 9996
L22 55143 86.5136 284.1449 0008959 199.8341 62.1411 14.90683238 1300



Live tracking and technical data element details for ONEWEB-0543 (NORAD 55143). ONEWEB-0543 can be tracked NOW for your location showing map with azimuth and elevation plus other details from your city location.







IsCatalogInMostPopularTable: catalog: 55143, numindb: 3
Update: records affected: 1



GetName: 55143 ONEWEB-0543

Hit Count: updated at: Tue, 07 Feb 2023 15:53:18 GMT